{"data":{"norad_id":53731,"intl_designator":"2022-107AH","name":"STARLINK-4636","alt_names":[],"object_type":"PAYLOAD","status":"ACTIVE","operator":null,"country":"US","launch_date":"2022-09-05","launch_site_code":"AFETR","launch_vehicle":null,"mission":null,"orbit_class":"UNKNOWN","rcs_meters":null,"size_class":null,"mass_kg":null,"dimensions":null,"purposes":["comms"],"wikipedia_slug":null,"has_3d_model":false,"image_url":null,"decayed_at":null,"tle_current":{"epoch":"2026-09-19T22:35:23.580096Z","epoch_age_seconds":129984,"freshness":"FRESH","line1":"1 53731U 22107AH  26262.94124514  .00008678  00000+0  40457-3 0  9990","line2":"2 53731  53.2138  91.2541 0004177  47.7921 312.3430 15.20651888224068","mean_motion":15.20651888,"eccentricity":0.0004177,"inclination_deg":53.2138,"raan_deg":91.2541,"arg_perigee_deg":47.7921,"mean_anomaly_deg":312.343,"bstar":0.00040457,"rev_number":22406,"period_min":94.696229384486,"perigee_km":500.99846340765,"apogee_km":506.74769462767,"semimajor_km":6882.0100790177,"source":"CELESTRAK","updated_at":"2026-09-21T09:00:32.987674Z"}}}